Weather History for Grafton, ND

Change the Weather History Date:

Thursday, February 21, 2013

  Actual Average Record
Temperature  
Mean Temperature 8 °F -  
Max Temperature 15 °F 27 °F 48 °F (1984)
Min Temperature 0 °F 7 °F -31 °F (1966)
Degree Days  
Heating Degree Days 58    
Moisture  
Dew Point 1 °F    
Average Humidity 74    
Maximum Humidity 85    
Minimum Humidity 66    
Precipitation  
Precipitation 0.00 in - - ()
Sea Level Pressure  
Sea Level Pressure 30.34 in    
Wind  
Wind Speed 9 mph (SE)    
Max Wind Speed 15 mph    
Max Gust Speed -    
Visibility 10 miles    
Events      
Averages and records for this station are not official NWS values.
T = Trace of Precipitation, MM = Missing Value Source: NWS Daily Summary

Daily Weather History Graph

Daily Weather History Graph

Search for Another Location

Airport:

Trip Planner

Search our weather history database for the weather conditions in past years. The results will help you decide how hot, cold, wet, or windy it might be!

Date:

Astronomy

Feb. 21, 2013 Rise Set
Actual Time 7:25 AM CST 6:01 PM CST
Civil Twilight 6:53 AM CST 6:33 PM CST
Nautical Twilight 6:17 AM CST 7:09 PM CST
Astronomical Twilight 5:41 AM CST 7:45 PM CST
Moon 2:05 PM CST 4:44 AM CST
Length of Visible Light 11h 39m
Length of Day
10h 35m
Waxing Gibbous, 84% of the Moon is Illuminated
Feb 21
Waxing Gibbous
Feb 25
Full
Mar 4
Last Quarter
Mar 11
New
Mar 19
First Quarter

Hourly Weather History & Observations

Time (CST) Temp. Windchill Dew Point Humidity Pressure Visibility Wind Dir Wind Speed Gust Speed Precip Events Conditions
12:15 AM 3.2 °F -7.8 °F -2.2 °F 78% 30.37 in 10.0 mi SE 5.8 mph - N/A   Clear
12:35 AM 5.0 °F -8.1 °F -2.2 °F 72% 30.37 in 10.0 mi SE 8.1 mph - N/A   Scattered Clouds
12:55 AM 5.0 °F -10.0 °F -2.2 °F 72% 30.37 in 10.0 mi SE 10.4 mph - N/A   Partly Cloudy
1:15 AM 5.0 °F -9.1 °F -2.2 °F 72% 30.38 in 10.0 mi SE 9.2 mph - N/A   Clear
1:35 AM 5.0 °F -9.1 °F -2.2 °F 72% 30.38 in 10.0 mi SSE 9.2 mph - N/A   Clear
1:55 AM 5.0 °F -10.8 °F -0.4 °F 78% 30.38 in 10.0 mi SE 11.5 mph - N/A   Clear
2:15 AM 6.8 °F -9.3 °F -2.2 °F 67% 30.38 in 10.0 mi SSE 12.7 mph - N/A   Scattered Clouds
2:35 AM 5.0 °F -11.6 °F -4.0 °F 66% 30.38 in 10.0 mi SSE 12.7 mph - N/A   Mostly Cloudy
2:55 AM 5.0 °F -9.1 °F -4.0 °F 66% 30.38 in 10.0 mi SSE 9.2 mph - N/A   Scattered Clouds
3:15 AM 5.0 °F -10.8 °F -2.2 °F 72% 30.38 in 10.0 mi SSE 11.5 mph - N/A   Scattered Clouds
3:35 AM 5.0 °F -10.0 °F -2.2 °F 72% 30.38 in 10.0 mi SE 10.4 mph - N/A   Clear
3:55 AM 5.0 °F -10.0 °F -2.2 °F 72% 30.39 in 10.0 mi SSE 10.4 mph - N/A   Clear
4:15 AM 5.0 °F -10.8 °F -2.2 °F 72% 30.39 in 10.0 mi SSE 11.5 mph - N/A   Partly Cloudy
4:35 AM 5.0 °F -10.8 °F -2.2 °F 72% 30.39 in 10.0 mi SE 11.5 mph - N/A   Clear
4:55 AM 5.0 °F -11.6 °F -2.2 °F 72% 30.39 in 10.0 mi SE 12.7 mph - N/A   Partly Cloudy
5:15 AM 5.0 °F -11.6 °F -2.2 °F 72% 30.39 in 10.0 mi SE 12.7 mph - N/A   Scattered Clouds
6:15 AM 1.4 °F -15.3 °F -4.0 °F 78% 30.38 in 10.0 mi SE 11.5 mph - N/A   Clear
6:35 AM -0.4 °F -15.7 °F -4.0 °F 85% 30.38 in 10.0 mi SE 9.2 mph - N/A   Clear
6:55 AM -0.4 °F -12.0 °F -5.8 °F 78% 30.38 in 10.0 mi SE 5.8 mph - N/A   Clear
7:15 AM -0.4 °F -8.3 °F -7.6 °F 72% 30.38 in 10.0 mi ESE 3.5 mph - N/A   Clear
7:35 AM -0.4 °F -8.3 °F -7.6 °F 72% 30.37 in 10.0 mi East 3.5 mph - N/A   Clear
7:55 AM -0.4 °F -13.4 °F -7.6 °F 72% 30.37 in 10.0 mi ESE 6.9 mph - N/A   Clear
8:15 AM -0.4 °F -14.7 °F -7.6 °F 72% 30.38 in 10.0 mi SE 8.1 mph - N/A   Clear
8:35 AM -0.4 °F -15.7 °F -7.6 °F 72% 30.38 in 10.0 mi SE 9.2 mph - N/A   Clear
8:55 AM 1.4 °F -15.3 °F -7.6 °F 66% 30.39 in 10.0 mi SSE 11.5 mph - N/A   Clear
9:15 AM 1.4 °F -15.3 °F -7.6 °F 66% 30.40 in 10.0 mi SSE 11.5 mph - N/A   Clear
9:35 AM 1.4 °F -13.5 °F -5.8 °F 72% 30.41 in 10.0 mi SSE 9.2 mph - N/A   Clear
9:55 AM 5.0 °F -11.6 °F -4.0 °F 66% 30.41 in 4.0 mi SSE 12.7 mph - N/A   Haze
10:15 AM 5.0 °F -10.8 °F -4.0 °F 66% 30.41 in 1.8 mi SSE 11.5 mph - N/A   Haze
10:35 AM 6.8 °F -6.9 °F -2.2 °F 67% 30.39 in 10.0 mi SSE 9.2 mph - N/A   Unknown
10:55 AM 6.8 °F -6.9 °F -0.4 °F 72% 30.38 in 10.0 mi SSE 9.2 mph - N/A   Clear
11:15 AM 8.6 °F -4.7 °F -0.4 °F 67% 30.37 in 10.0 mi SSE 9.2 mph - N/A   Clear
11:35 AM 8.6 °F -5.5 °F -0.4 °F 67% 30.36 in 10.0 mi SE 10.4 mph - N/A   Scattered Clouds
11:55 AM 8.6 °F -6.3 °F -0.4 °F 67% 30.36 in 10.0 mi SE 11.5 mph - N/A   Partly Cloudy
12:15 PM 10.4 °F -4.8 °F 1.4 °F 67% 30.36 in 10.0 mi SE 12.7 mph - N/A   Clear
12:35 PM 10.4 °F -4.1 °F 1.4 °F 67% 30.36 in 10.0 mi SE 11.5 mph - N/A   Clear
12:55 PM 10.4 °F -5.4 °F 3.2 °F 73% 30.36 in 10.0 mi SSE 13.8 mph - N/A   Clear
1:15 PM 12.2 °F -2.5 °F 3.2 °F 67% 30.35 in 10.0 mi SSE 12.7 mph - N/A   Clear
1:35 PM 14.0 °F -1.4 °F 5.0 °F 67% 30.34 in 10.0 mi SSE 15.0 mph - N/A   Clear
1:55 PM 15.8 °F 2.1 °F 6.8 °F 68% 30.34 in 10.0 mi SSE 12.7 mph - N/A   Clear
2:15 PM 15.8 °F 1.4 °F 6.8 °F 68% 30.33 in 10.0 mi SSE 13.8 mph - N/A   Clear
2:35 PM 15.8 °F 2.7 °F 6.8 °F 68% 30.33 in 10.0 mi SSE 11.5 mph - N/A   Clear
2:55 PM 15.8 °F 4.2 °F 6.8 °F 68% 30.32 in 10.0 mi SSE 9.2 mph - N/A   Clear
3:15 PM 15.8 °F 3.4 °F 6.8 °F 68% 30.32 in 10.0 mi SE 10.4 mph - N/A   Clear
3:35 PM 15.8 °F 5.1 °F 6.8 °F 68% 30.31 in 10.0 mi SE 8.1 mph - N/A   Clear
3:55 PM 15.8 °F 5.1 °F 6.8 °F 68% 30.31 in 10.0 mi SE 8.1 mph - N/A   Clear
4:15 PM 15.8 °F 5.1 °F 6.8 °F 68% 30.31 in 10.0 mi SE 8.1 mph - N/A   Partly Cloudy
4:35 PM 15.8 °F 7.2 °F 6.8 °F 68% 30.30 in 10.0 mi ESE 5.8 mph - N/A   Clear
4:55 PM 14.0 °F 3.9 °F 8.6 °F 79% 30.30 in 10.0 mi ESE 6.9 mph - N/A   Scattered Clouds
5:15 PM 14.0 °F 3.9 °F 6.8 °F 73% 30.30 in 10.0 mi ESE 6.9 mph - N/A   Partly Cloudy
5:35 PM 12.2 °F 1.7 °F 6.8 °F 79% 30.30 in 10.0 mi ESE 6.9 mph - N/A   Scattered Clouds
5:55 PM 12.2 °F 1.7 °F 6.8 °F 79% 30.29 in 10.0 mi East 6.9 mph - N/A   Partly Cloudy
6:15 PM 12.2 °F 2.9 °F 6.8 °F 79% 30.29 in 10.0 mi ESE 5.8 mph - N/A   Clear
6:35 PM 12.2 °F 6.1 °F 6.8 °F 79% 30.29 in 10.0 mi East 3.5 mph - N/A   Clear
6:55 PM 12.2 °F 6.1 °F 6.8 °F 79% 30.29 in 10.0 mi ESE 3.5 mph - N/A   Clear
7:15 PM 10.4 °F 4.0 °F 6.8 °F 85% 30.29 in 10.0 mi ESE 3.5 mph - N/A   Clear
7:35 PM 10.4 °F - 6.8 °F 85% 30.28 in 10.0 mi Calm Calm - N/A   Clear
7:55 PM 12.2 °F - 6.8 °F 79% 30.28 in 10.0 mi Calm Calm - N/A   Partly Cloudy
8:15 PM 10.4 °F - 5.0 °F 79% 30.27 in 10.0 mi Calm Calm - N/A   Partly Cloudy
8:35 PM 8.6 °F 0.1 °F 5.0 °F 85% 30.27 in 10.0 mi NE 4.6 mph - N/A   Clear
8:55 PM 8.6 °F - 5.0 °F 85% 30.26 in 10.0 mi Calm Calm - N/A   Clear
9:15 PM 6.8 °F -2.0 °F 3.2 °F 85% 30.26 in 10.0 mi NNW 4.6 mph - N/A   Clear
9:35 PM 6.8 °F -2.0 °F 1.4 °F 79% 30.26 in 10.0 mi North 4.6 mph - N/A   Clear
9:55 PM 6.8 °F -2.0 °F 1.4 °F 79% 30.25 in 10.0 mi North 4.6 mph - N/A   Clear
10:15 PM 6.8 °F -2.0 °F 1.4 °F 79% 30.25 in 10.0 mi North 4.6 mph - N/A   Clear
10:35 PM 6.8 °F -3.5 °F 1.4 °F 79% 30.24 in 10.0 mi North 5.8 mph - N/A   Clear
10:55 PM 6.8 °F -3.5 °F 1.4 °F 79% 30.23 in 10.0 mi North 5.8 mph - N/A   Clear
11:15 PM 6.8 °F -2.0 °F 1.4 °F 79% 30.22 in 10.0 mi NNE 4.6 mph - N/A   Clear
11:35 PM 5.0 °F -4.1 °F 1.4 °F 85% 30.22 in 10.0 mi NNE 4.6 mph - N/A   Clear
11:55 PM 5.0 °F -4.1 °F 1.4 °F 85% 30.21 in 10.0 mi NNE 4.6 mph - N/A   Clear